| time (UTC) | temp F | wind direction | speed MPH | gust MPH | rain 1hr in | rain 24hr in | rain mn in | humidity % | barometer mb |
| 20260507093642 | 52 | 54 | 2.0 | 2.0 | 0.00 | 0.00 | 0.00 | 82 | 1013.2 |
| 20260507093141 | 52 | 55 | 3.0 | 4.0 | 0.00 | 0.00 | 0.00 | 81 | 1013.2 |
| 20260507092637 | 52 | 66 | 0.0 | 4.0 | 0.00 | 0.00 | 0.00 | 82 | 1013.2 |
| 20260507092133 | 52 | 46 | 2.0 | 3.0 | 0.00 | 0.00 | 0.00 | 83 | 1013.1 |
| 20260507091630 | 52 | 347 | 2.0 | 3.0 | 0.00 | 0.00 | 0.00 | 84 | 1013.4 |
| 20260507091126 | 52 | 50 | 2.0 | 4.0 | 0.00 | 0.00 | 0.00 | 85 | 1013.2 |
| 20260507090622 | 52 | 51 | 2.0 | 2.0 | 0.00 | 0.00 | 0.00 | 86 | 1013.1 |
| 20260507090119 | 52 | 44 | 2.0 | 3.0 | 0.00 | 0.00 | 0.00 | 85 | 1013.1 |
| 20260507085616 | 52 | 55 | 0.0 | 3.0 | 0.00 | 0.00 | 0.00 | 86 | 1013.1 |
| 20260507085112 | 52 | 52 | 2.0 | 3.0 | 0.00 | 0.00 | 0.00 | 86 | 1012.9 |
| 20260507084610 | 52 | 77 | 1.0 | 2.0 | 0.00 | 0.00 | 0.00 | 86 | 1013.1 |
| 20260507084106 | 52 | 62 | 2.0 | 3.0 | 0.00 | 0.00 | 0.00 | 86 | 1013.0 |
| 20260507083602 | 52 | 50 | 2.0 | 2.0 | 0.00 | 0.00 | 0.00 | 85 | 1013.3 |
| 20260507083100 | 52 | 30 | 2.0 | 3.0 | 0.00 | 0.00 | 0.00 | 85 | 1013.3 |
| 20260507082555 | 52 | 47 | 1.0 | 4.0 | 0.00 | 0.00 | 0.00 | 85 | 1013.3 |
| 20260507082052 | 52 | 36 | 2.0 | 3.0 | 0.00 | 0.00 | 0.00 | 86 | 1013.2 |
| 20260507081548 | 52 | 51 | 0.0 | 3.0 | 0.00 | 0.00 | 0.00 | 86 | 1012.9 |
| 20260507081046 | 52 | 53 | 2.0 | 3.0 | 0.00 | 0.00 | 0.00 | 87 | 1013.2 |
| 20260507080541 | 52 | 34 | 2.0 | 2.0 | 0.00 | 0.00 | 0.00 | 89 | 1013.0 |
| 20260507080038 | 52 | 39 | 2.0 | 2.0 | 0.00 | 0.00 | 0.00 | 89 | 1013.1 |
| 20260507075533 | 52 | 70 | 2.0 | 2.0 | 0.00 | 0.00 | 0.00 | 90 | 1012.9 |
| 20260507075030 | 52 | 93 | 2.0 | 2.0 | 0.00 | 0.00 | 0.00 | 91 | 1013.1 |
| 20260507074527 | 52 | 61 | 2.0 | 2.0 | 0.00 | 0.00 | 0.00 | 91 | 1013.3 |
| 20260507074026 | 52 | 53 | 2.0 | 2.0 | 0.00 | 0.00 | 0.00 | 92 | 1013.2 |
| 20260507073521 | 52 | 88 | 1.0 | 2.0 | 0.00 | 0.00 | 0.00 | 93 | 1013.3 |
| 20260507073018 | 52 | 84 | 1.0 | 2.0 | 0.00 | 0.00 | 0.00 | 93 | 1013.4 |
| 20260507072515 | 52 | 93 | 1.0 | 2.0 | 0.00 | 0.00 | 0.00 | 92 | 1013.4 |
| 20260507072012 | 52 | 91 | 2.0 | 2.0 | 0.00 | 0.00 | 0.00 | 92 | 1013.3 |
| 20260507071509 | 52 | 77 | 1.0 | 2.0 | 0.00 | 0.00 | 0.00 | 91 | 1013.2 |
| 20260507071006 | 52 | 81 | 1.0 | 2.0 | 0.00 | 0.00 | 0.00 | 91 | 1013.4 |
| 20260507070503 | 52 | 92 | 2.0 | 2.0 | 0.00 | 0.00 | 0.00 | 90 | 1013.6 |
| 20260507070000 | 52 | 45 | 2.0 | 2.0 | 0.00 | 0.00 | 0.00 | 91 | 1013.6 |
| 20260507065456 | 52 | 61 | 2.0 | 2.0 | 0.00 | 0.00 | 0.00 | 91 | 1013.3 |
| 20260507064954 | 52 | 61 | 2.0 | 2.0 | 0.00 | 0.00 | 0.00 | 91 | 1013.7 |
| 20260507064452 | 53 | 66 | 2.0 | 2.0 | 0.00 | 0.00 | 0.00 | 91 | 1013.7 |
| 20260507063949 | 52 | 56 | 2.0 | 2.0 | 0.00 | 0.00 | 0.00 | 90 | 1013.4 |
| 20260507063446 | 53 | 55 | 2.0 | 2.0 | 0.00 | 0.00 | 0.00 | 91 | 1013.4 |
| 20260507062943 | 53 | 72 | 2.0 | 2.0 | 0.00 | 0.00 | 0.00 | 91 | 1013.3 |
| 20260507062441 | 53 | 57 | 2.0 | 2.0 | 0.00 | 0.00 | 0.00 | 90 | 1013.2 |
| 20260507061938 | 53 | 73 | 2.0 | 2.0 | 0.00 | 0.00 | 0.00 | 90 | 1013.4 |
| 20260507061436 | 53 | 29 | 1.0 | 2.0 | 0.00 | 0.00 | 0.00 | 91 | 1013.4 |
| 20260507060934 | 53 | 47 | 2.0 | 2.0 | 0.00 | 0.00 | 0.00 | 92 | 1013.2 |
| 20260507060430 | 53 | 42 | 1.0 | 2.0 | 0.00 | 0.00 | 0.00 | 93 | 1013.6 |
| 20260507055927 | 53 | 57 | 2.0 | 2.0 | 0.00 | 0.00 | 0.00 | 94 | 1013.0 |
| 20260507055423 | 53 | 48 | 2.0 | 2.0 | 0.00 | 0.00 | 0.00 | 94 | 1013.0 |
| 20260507054920 | 53 | 53 | 2.0 | 2.0 | 0.00 | 0.00 | 0.00 | 94 | 1013.3 |
| 20260507054415 | 53 | 65 | 2.0 | 2.0 | 0.00 | 0.00 | 0.00 | 94 | 1013.4 |
| 20260507053913 | 53 | 56 | 2.0 | 2.0 | 0.00 | 0.00 | 0.00 | 95 | 1013.4 |
| 20260507053410 | 53 | 20 | 2.0 | 2.0 | 0.00 | 0.00 | 0.00 | 96 | 1013.3 |
| 20260507052909 | 53 | 37 | 2.0 | 2.0 | 0.00 | 0.00 | 0.00 | 96 | 1013.4 |
| 20260507052406 | 53 | 63 | 2.0 | 2.0 | 0.00 | 0.00 | 0.00 | 96 | 1013.4 |
| 20260507051903 | 53 | 64 | 2.0 | 3.0 | 0.00 | 0.00 | 0.00 | 96 | 1013.8 |
| 20260507051401 | 53 | 83 | 2.0 | 2.0 | 0.00 | 0.00 | 0.00 | 96 | 1014.4 |
| 20260507050857 | 53 | 80 | 0.0 | 2.0 | 0.00 | 0.00 | 0.00 | 96 | 1014.4 |
| 20260507050354 | 53 | 54 | 2.0 | 2.0 | 0.00 | 0.00 | 0.00 | 96 | 1014.1 |
| 20260507045851 | 53 | 64 | 2.0 | 2.0 | 0.00 | 0.80 | 0.80 | 96 | 1014.2 |
| 20260507045347 | 53 | 85 | 2.0 | 2.0 | 0.00 | 0.80 | 0.80 | 96 | 1014.1 |
| 20260507044844 | 53 | 60 | 2.0 | 2.0 | 0.00 | 0.80 | 0.80 | 96 | 1014.0 |
| 20260507044341 | 53 | 73 | 2.0 | 2.0 | 0.00 | 0.80 | 0.80 | 96 | 1014.1 |
| 20260507043836 | 53 | 60 | 2.0 | 2.0 | 0.00 | 0.80 | 0.80 | 96 | 1014.1 |
| 20260507043334 | 53 | 81 | 0.0 | 1.0 | 0.00 | 0.80 | 0.80 | 96 | 1014.1 |
| 20260507042830 | 53 | 86 | 2.0 | 2.0 | 0.00 | 0.80 | 0.80 | 96 | 1013.8 |
| 20260507042326 | 53 | 119 | 0.0 | 2.0 | 0.00 | 0.80 | 0.80 | 96 | 1014.1 |
| 20260507041823 | 53 | 96 | 2.0 | 2.0 | 0.00 | 0.80 | 0.80 | 96 | 1013.9 |
| 20260507041319 | 54 | 68 | 1.0 | 2.0 | 0.00 | 0.80 | 0.80 | 96 | 1013.9 |
| 20260507040816 | 53 | 72 | 0.0 | 1.0 | 0.00 | 0.80 | 0.80 | 96 | 1013.7 |
| 20260507040312 | 53 | 72 | 0.0 | 1.0 | 0.00 | 0.80 | 0.80 | 96 | 1013.9 |
| 20260507035808 | 53 | 62 | 2.0 | 2.0 | 0.00 | 0.80 | 0.80 | 96 | 1013.5 |
| 20260507035306 | 53 | 76 | 2.0 | 2.0 | 0.00 | 0.80 | 0.80 | 96 | 1013.7 |
| 20260507034802 | 53 | 40 | 1.0 | 2.0 | 0.00 | 0.80 | 0.80 | 95 | 1013.5 |
| 20260507034259 | 53 | 92 | 2.0 | 2.0 | 0.02 | 0.80 | 0.80 | 95 | 1014.0 |
| 20260507033757 | 53 | 60 | 0.0 | 2.0 | 0.02 | 0.80 | 0.80 | 95 | 1014.3 |
| 20260507033254 | 53 | 89 | 0.0 | 2.0 | 0.00 | 0.80 | 0.80 | 95 | 1013.6 |
| 20260507032751 | 53 | 44 | 2.0 | 2.0 | 0.00 | 0.80 | 0.80 | 95 | 1013.5 |
| 20260507032247 | 53 | 93 | 2.0 | 2.0 | 0.00 | 0.80 | 0.80 | 95 | 1013.9 |
| 20260507031744 | 53 | 71 | 2.0 | 2.0 | 0.00 | 0.80 | 0.80 | 95 | 1013.9 |
| 20260507031241 | 53 | 80 | 1.0 | 3.0 | 0.00 | 0.80 | 0.80 | 94 | 1013.5 |
| 20260507030737 | 53 | 88 | 2.0 | 2.0 | 0.00 | 0.80 | 0.80 | 94 | 1013.7 |
| 20260507030235 | 53 | 50 | 0.0 | 2.0 | 0.00 | 0.80 | 0.80 | 94 | 1013.7 |
| 20260507025732 | 53 | 92 | 2.0 | 2.0 | 0.00 | 0.80 | 0.80 | 94 | 1013.5 |
| 20260507025229 | 53 | 72 | 0.0 | 2.0 | 0.02 | 0.80 | 0.80 | 94 | 1013.5 |
| 20260507024727 | 53 | 50 | 1.0 | 2.0 | 0.02 | 0.80 | 0.80 | 94 | 1013.4 |
| 20260507024224 | 53 | 81 | 0.0 | 3.0 | 0.00 | 0.79 | 0.79 | 94 | 1013.1 |
| 20260507023720 | 53 | 17 | 1.0 | 2.0 | 0.00 | 0.79 | 0.79 | 93 | 1013.5 |
| 20260507023217 | 53 | 21 | 2.0 | 3.0 | 0.02 | 0.79 | 0.79 | 94 | 1013.6 |
| 20260507022714 | 53 | 57 | 3.0 | 3.0 | 0.02 | 0.79 | 0.79 | 94 | 1013.3 |
| 20260507022210 | 54 | 13 | 0.0 | 2.0 | 0.00 | 0.79 | 0.79 | 94 | 1013.9 |
| 20260507021706 | 54 | 54 | 0.0 | 2.0 | 0.00 | 0.79 | 0.79 | 94 | 1013.8 |
| 20260507021201 | 54 | 52 | 2.0 | 2.0 | 0.00 | 0.79 | 0.79 | 93 | 1013.7 |
| 20260507020701 | 54 | 14 | 2.0 | 2.0 | 0.00 | 0.79 | 0.79 | 93 | 1013.6 |
| 20260507020156 | 54 | 80 | 2.0 | 2.0 | 0.00 | 0.79 | 0.79 | 93 | 1013.9 |
| 20260507015654 | 54 | 60 | 2.0 | 2.0 | 0.00 | 0.79 | 0.79 | 93 | 1013.7 |
| 20260507015151 | 54 | 54 | 0.0 | 2.0 | 0.02 | 0.79 | 0.79 | 93 | 1013.6 |
| 20260507014648 | 54 | 58 | 1.0 | 3.0 | 0.05 | 0.79 | 0.79 | 93 | 1013.5 |
| 20260507014144 | 54 | 47 | 2.0 | 2.0 | 0.05 | 0.78 | 0.78 | 93 | 1014.1 |
| 20260507013641 | 54 | 32 | 0.0 | 1.0 | 0.05 | 0.78 | 0.78 | 92 | 1014.4 |
| 20260507013138 | 55 | 9 | 2.0 | 3.0 | 0.05 | 0.78 | 0.78 | 91 | 1014.0 |
| 20260507012636 | 55 | 354 | 0.0 | 2.0 | 0.05 | 0.77 | 0.77 | 91 | 1014.6 |
| 20260507012130 | 55 | 58 | 1.0 | 2.0 | 0.02 | 0.77 | 0.77 | 91 | 1014.3 |
| 20260507011629 | 55 | 42 | 1.0 | 2.0 | 0.00 | 0.76 | 0.76 | 91 | 1014.4 |
| 20260507011125 | 55 | 355 | 0.0 | 2.0 | 0.00 | 0.76 | 0.76 | 91 | 1013.5 |
| 20260507010620 | 55 | 13 | 2.0 | 3.0 | 0.00 | 0.76 | 0.76 | 90 | 1013.0 |
| 20260507010116 | 55 | 74 | 2.0 | 2.0 | 0.00 | 0.76 | 0.76 | 90 | 1013.3 |
| 20260507005614 | 55 | 348 | 2.0 | 3.0 | 0.00 | 0.76 | 0.76 | 90 | 1013.2 |
| 20260507005109 | 55 | 23 | 2.0 | 3.0 | 0.00 | 0.76 | 0.76 | 91 | 1013.3 |
| 20260507004607 | 55 | 26 | 0.0 | 4.0 | 0.00 | 0.76 | 0.76 | 91 | 1013.1 |
| 20260507004104 | 55 | 83 | 1.0 | 2.0 | 0.00 | 0.76 | 0.76 | 91 | 1013.0 |
| 20260507003600 | 55 | 30 | 2.0 | 2.0 | 0.00 | 0.76 | 0.76 | 92 | 1012.5 |
| 20260507003055 | 55 | 17 | 2.0 | 2.0 | 0.00 | 0.76 | 0.76 | 91 | 1012.3 |
| 20260507002552 | 55 | 37 | 2.0 | 2.0 | 0.00 | 0.76 | 0.76 | 91 | 1012.2 |
| 20260507002048 | 55 | 18 | 2.0 | 2.0 | 0.00 | 0.76 | 0.76 | 91 | 1011.8 |
| 20260507001544 | 55 | 33 | 0.0 | 2.0 | 0.00 | 0.76 | 0.76 | 91 | 1011.5 |
| 20260507001042 | 56 | 64 | 3.0 | 3.0 | 0.00 | 0.76 | 0.76 | 91 | 1011.5 |
| 20260507000538 | 56 | 53 | 2.0 | 2.0 | 0.00 | 0.76 | 0.76 | 91 | 1011.8 |
| 20260507000033 | 56 | 52 | 1.0 | 2.0 | 0.02 | 0.76 | 0.76 | 91 | 1011.6 |
| 20260506235531 | 56 | 40 | 2.0 | 3.0 | 0.02 | 0.76 | 0.76 | 91 | 1011.8 |
| 20260506235027 | 56 | 51 | 2.0 | 2.0 | 0.00 | 0.76 | 0.76 | 91 | 1012.0 |
| 20260506234525 | 56 | 63 | 2.0 | 3.0 | 0.00 | 0.76 | 0.76 | 91 | 1011.9 |
| 20260506234022 | 56 | 66 | 2.0 | 3.0 | 0.02 | 0.76 | 0.76 | 91 | 1012.2 |
| 20260506233518 | 57 | 61 | 2.0 | 2.0 | 0.02 | 0.76 | 0.76 | 91 | 1012.9 |
| 20260506233015 | 57 | 20 | 0.0 | 3.0 | 0.00 | 0.76 | 0.76 | 91 | 1012.7 |
| 20260506232511 | 57 | 1 | 3.0 | 3.0 | 0.00 | 0.76 | 0.76 | 93 | 1012.9 |
| 20260506232007 | 57 | 39 | 2.0 | 2.0 | 0.05 | 0.76 | 0.76 | 93 | 1012.7 |
| 20260506231505 | 57 | 311 | 0.0 | 2.0 | 0.14 | 0.76 | 0.76 | 93 | 1012.6 |
| 20260506231002 | 58 | 65 | 1.0 | 2.0 | 0.09 | 0.74 | 0.74 | 92 | 1012.4 |
| 20260506230458 | 58 | 68 | 1.0 | 2.0 | 0.07 | 0.73 | 0.73 | 91 | 1012.6 |
| 20260506225955 | 58 | 48 | 2.0 | 3.0 | 0.05 | 0.72 | 0.72 | 90 | 1012.7 |
| 20260506225452 | 58 | 50 | 2.0 | 2.0 | 0.05 | 0.72 | 0.72 | 89 | 1013.5 |
| 20260506224949 | 58 | 49 | 2.0 | 2.0 | 0.02 | 0.72 | 0.72 | 87 | 1013.4 |
| 20260506224446 | 58 | 69 | 1.0 | 2.0 | 0.00 | 0.71 | 0.71 | 87 | 1013.1 |
| 20260506223942 | 59 | 76 | 2.0 | 2.0 | 0.00 | 0.71 | 0.71 | 87 | 1013.0 |
| 20260506223438 | 59 | 82 | 2.0 | 2.0 | 0.00 | 0.71 | 0.71 | 86 | 1013.0 |
| 20260506222936 | 59 | 44 | 2.0 | 2.0 | 0.00 | 0.71 | 0.71 | 87 | 1013.0 |
| 20260506222432 | 59 | 77 | 1.0 | 2.0 | 0.00 | 0.71 | 0.71 | 86 | 1012.9 |
| 20260506221929 | 59 | 66 | 0.0 | 2.0 | 0.00 | 0.71 | 0.71 | 86 | 1013.0 |
| 20260506221426 | 59 | 92 | 1.0 | 2.0 | 0.00 | 0.71 | 0.71 | 87 | 1012.7 |
| 20260506220924 | 59 | 53 | 2.0 | 2.0 | 0.00 | 0.71 | 0.71 | 87 | 1012.8 |
| 20260506220419 | 59 | 107 | 2.0 | 2.0 | 0.00 | 0.71 | 0.71 | 87 | 1013.0 |
| 20260506215916 | 59 | 55 | 2.0 | 2.0 | 0.00 | 0.71 | 0.71 | 87 | 1012.7 |
| 20260506215412 | 59 | 31 | 0.0 | 2.0 | 0.00 | 0.71 | 0.71 | 88 | 1012.9 |
| 20260506214908 | 58 | 5 | 0.0 | 1.0 | 0.00 | 0.71 | 0.71 | 87 | 1012.4 |
| 20260506214405 | 58 | 88 | 1.0 | 2.0 | 0.00 | 0.71 | 0.71 | 86 | 1012.5 |
| 20260506213902 | 58 | 100 | 1.0 | 2.0 | 0.00 | 0.71 | 0.71 | 86 | 1012.6 |
| 20260506213400 | 58 | 70 | 1.0 | 2.0 | 0.00 | 0.71 | 0.71 | 87 | 1012.4 |
| 20260506212857 | 58 | 106 | 2.0 | 2.0 | 0.00 | 0.71 | 0.71 | 86 | 1012.1 |
| 20260506212353 | 58 | 89 | 1.0 | 2.0 | 0.00 | 0.71 | 0.71 | 87 | 1012.0 |
| 20260506211848 | 58 | 58 | 2.0 | 3.0 | 0.00 | 0.71 | 0.71 | 86 | 1012.1 |
| 20260506211344 | 58 | 88 | 2.0 | 2.0 | 0.00 | 0.71 | 0.71 | 86 | 1012.0 |
| 20260506210842 | 58 | 50 | 2.0 | 2.0 | 0.00 | 0.71 | 0.71 | 86 | 1012.2 |
| 20260506210338 | 58 | 60 | 2.0 | 2.0 | 0.00 | 0.71 | 0.71 | 87 | 1012.0 |
| 20260506205836 | 58 | 349 | 1.0 | 1.0 | 0.00 | 0.71 | 0.71 | 88 | 1012.4 |
| 20260506205331 | 58 | 323 | 2.0 | 3.0 | 0.00 | 0.71 | 0.71 | 87 | 1012.2 |
| 20260506204828 | 58 | 48 | 0.0 | 2.0 | 0.00 | 0.71 | 0.71 | 85 | 1012.0 |
| 20260506204326 | 58 | 69 | 2.0 | 2.0 | 0.00 | 0.71 | 0.71 | 86 | 1012.3 |
| 20260506203823 | 58 | 57 | 2.0 | 2.0 | 0.00 | 0.71 | 0.71 | 86 | 1012.4 |
| 20260506203320 | 58 | 65 | 1.0 | 2.0 | 0.00 | 0.71 | 0.71 | 86 | 1012.5 |
| 20260506202817 | 58 | 290 | 0.0 | 2.0 | 0.00 | 0.71 | 0.71 | 86 | 1012.5 |
| 20260506202314 | 58 | 337 | 1.0 | 2.0 | 0.00 | 0.71 | 0.71 | 86 | 1012.2 |
| 20260506201810 | 58 | 85 | 2.0 | 2.0 | 0.00 | 0.71 | 0.71 | 85 | 1012.4 |
| 20260506201308 | 58 | 83 | 1.0 | 2.0 | 0.00 | 0.71 | 0.71 | 86 | 1012.2 |
| 20260506200805 | 58 | 84 | 2.0 | 4.0 | 0.00 | 0.71 | 0.71 | 86 | 1012.6 |
| 20260506200301 | 57 | 315 | 0.0 | 2.0 | 0.00 | 0.71 | 0.71 | 87 | 1012.4 |
| 20260506195757 | 57 | 315 | 0.0 | 2.0 | 0.00 | 0.71 | 0.71 | 87 | 1012.4 |
| 20260506195254 | 57 | 95 | 1.0 | 2.0 | 0.00 | 0.71 | 0.71 | 88 | 1012.5 |
| 20260506194751 | 57 | 63 | 1.0 | 3.0 | 0.00 | 0.71 | 0.71 | 87 | 1012.2 |
| 20260506194248 | 57 | 343 | 2.0 | 4.0 | 0.00 | 0.71 | 0.71 | 89 | 1012.0 |
| 20260506193746 | 57 | 3 | 2.0 | 2.0 | 0.00 | 0.71 | 0.71 | 89 | 1012.3 |
| 20260506193242 | 57 | 339 | 2.0 | 4.0 | 0.00 | 0.71 | 0.71 | 88 | 1011.9 |
| 20260506192738 | 57 | 69 | 2.0 | 2.0 | 0.00 | 0.71 | 0.71 | 88 | 1012.5 |
| 20260506192235 | 57 | 331 | 1.0 | 2.0 | 0.00 | 0.71 | 0.71 | 89 | 1012.8 |
| 20260506191732 | 57 | 57 | 2.0 | 3.0 | 0.00 | 0.71 | 0.71 | 89 | 1012.5 |
| 20260506191228 | 57 | 95 | 2.0 | 3.0 | 0.00 | 0.71 | 0.71 | 90 | 1012.4 |
| 20260506190726 | 56 | 76 | 0.0 | 3.0 | 0.00 | 0.71 | 0.71 | 90 | 1012.1 |
| 20260506190222 | 56 | 30 | 1.0 | 3.0 | 0.00 | 0.71 | 0.71 | 91 | 1012.3 |
| 20260506185719 | 56 | 85 | 1.0 | 2.0 | 0.00 | 0.71 | 0.71 | 91 | 1012.9 |
| 20260506185215 | 55 | 28 | 1.0 | 2.0 | 0.00 | 0.71 | 0.71 | 91 | 1013.3 |
| 20260506184713 | 55 | 6 | 2.0 | 2.0 | 0.00 | 0.71 | 0.71 | 92 | 1013.3 |
| 20260506184210 | 55 | 308 | 1.0 | 2.0 | 0.00 | 0.71 | 0.71 | 92 | 1013.2 |
| 20260506183707 | 55 | 211 | 0.0 | 2.0 | 0.00 | 0.71 | 0.71 | 91 | 1013.1 |
| 20260506183203 | 55 | 7 | 2.0 | 3.0 | 0.00 | 0.71 | 0.71 | 91 | 1013.3 |
| 20260506182700 | 55 | 31 | 2.0 | 2.0 | 0.00 | 0.71 | 0.71 | 91 | 1012.9 |
| 20260506182157 | 55 | 264 | 2.0 | 2.0 | 0.00 | 0.71 | 0.71 | 91 | 1013.0 |
| 20260506181655 | 55 | 22 | 1.0 | 2.0 | 0.00 | 0.71 | 0.71 | 90 | 1012.9 |
| 20260506181152 | 55 | 54 | 2.0 | 2.0 | 0.00 | 0.71 | 0.71 | 91 | 1013.0 |
| 20260506180649 | 55 | 71 | 1.0 | 2.0 | 0.00 | 0.71 | 0.71 | 90 | 1012.9 |
| 20260506180145 | 55 | 353 | 1.0 | 1.0 | 0.00 | 0.71 | 0.71 | 90 | 1012.7 |
| 20260506175642 | 55 | 338 | 0.0 | 2.0 | 0.00 | 0.71 | 0.71 | 91 | 1012.6 |
| 20260506175139 | 55 | 63 | 2.0 | 3.0 | 0.00 | 0.71 | 0.71 | 91 | 1012.6 |
| 20260506174637 | 55 | 107 | 2.0 | 3.0 | 0.00 | 0.71 | 0.71 | 91 | 1012.5 |
| 20260506174134 | 55 | 55 | 0.0 | 3.0 | 0.00 | 0.71 | 0.71 | 92 | 1012.4 |
| 20260506173631 | 54 | 34 | 2.0 | 2.0 | 0.00 | 0.71 | 0.71 | 92 | 1012.3 |
| 20260506173128 | 54 | 18 | 2.0 | 3.0 | 0.00 | 0.71 | 0.71 | 92 | 1012.1 |
| 20260506172625 | 54 | 64 | 3.0 | 4.0 | 0.00 | 0.71 | 0.71 | 93 | 1012.2 |
| 20260506172121 | 54 | 348 | 3.0 | 4.0 | 0.00 | 0.71 | 0.71 | 93 | 1012.1 |
| 20260506171619 | 55 | 60 | 3.0 | 3.0 | 0.00 | 0.71 | 0.71 | 94 | 1012.3 |
| 20260506171117 | 55 | 24 | 2.0 | 2.0 | 0.00 | 0.71 | 0.71 | 94 | 1012.4 |
| 20260506170615 | 55 | 44 | 0.0 | 3.0 | 0.00 | 0.71 | 0.71 | 94 | 1012.6 |
| 20260506170111 | 54 | 343 | 1.0 | 3.0 | 0.00 | 0.71 | 0.71 | 93 | 1012.3 |
| 20260506165609 | 55 | 22 | 2.0 | 4.0 | 0.00 | 0.71 | 0.71 | 94 | 1012.4 |
| 20260506165105 | 55 | 43 | 4.0 | 4.0 | 0.00 | 0.71 | 0.71 | 94 | 1012.4 |
| 20260506164603 | 54 | 59 | 4.0 | 4.0 | 0.00 | 0.71 | 0.71 | 94 | 1012.3 |
| 20260506164100 | 54 | 23 | 2.0 | 3.0 | 0.00 | 0.71 | 0.71 | 94 | 1012.5 |
| 20260506163555 | 54 | 17 | 2.0 | 3.0 | 0.00 | 0.71 | 0.71 | 93 | 1012.3 |
| 20260506163051 | 54 | 345 | 1.0 | 2.0 | 0.00 | 0.71 | 0.71 | 93 | 1012.4 |
| 20260506162548 | 54 | 330 | 1.0 | 2.0 | 0.00 | 0.71 | 0.71 | 93 | 1012.5 |
| 20260506162045 | 55 | 31 | 0.0 | 2.0 | 0.00 | 0.71 | 0.71 | 93 | 1012.4 |
| 20260506161542 | 55 | 353 | 2.0 | 2.0 | 0.00 | 0.71 | 0.71 | 92 | 1012.4 |
| 20260506161039 | 54 | 41 | 2.0 | 2.0 | 0.00 | 0.71 | 0.71 | 92 | 1012.2 |
| 20260506160537 | 54 | 13 | 1.0 | 2.0 | 0.00 | 0.71 | 0.71 | 94 | 1012.4 |
| 20260506160034 | 54 | 22 | 1.0 | 3.0 | 0.00 | 0.71 | 0.71 | 93 | 1012.4 |
| 20260506155532 | 54 | 6 | 2.0 | 3.0 | 0.00 | 0.71 | 0.71 | 94 | 1012.2 |
| 20260506153703 | 55 | 336 | 1.0 | 3.0 | 0.00 | 0.71 | 0.71 | 94 | 1012.3 |
| 20260506153201 | 54 | 56 | 3.0 | 3.0 | 0.00 | 0.71 | 0.71 | 94 | 1012.3 |
| 20260506152657 | 54 | 16 | 2.0 | 4.0 | 0.00 | 0.71 | 0.71 | 94 | 1012.4 |
| 20260506152155 | 54 | 15 | 1.0 | 4.0 | 0.00 | 0.71 | 0.71 | 94 | 1012.2 |
| 20260506151654 | 54 | 51 | 2.0 | 2.0 | 0.00 | 0.71 | 0.71 | 94 | 1012.2 |
| 20260506151150 | 55 | 29 | 0.0 | 2.0 | 0.00 | 0.71 | 0.71 | 93 | 1012.3 |
| 20260506150647 | 55 | 81 | 0.0 | 2.0 | 0.00 | 0.71 | 0.71 | 94 | 1012.0 |
| 20260506150144 | 54 | 12 | 1.0 | 2.0 | 0.00 | 0.71 | 0.71 | 93 | 1011.9 |
| 20260506145641 | 54 | 16 | 0.0 | 1.0 | 0.00 | 0.71 | 0.71 | 93 | 1012.1 |
| 20260506145137 | 54 | 344 | 3.0 | 4.0 | 0.00 | 0.71 | 0.71 | 93 | 1011.9 |
| 20260506144635 | 54 | 0 | 0.0 | 2.0 | 0.00 | 0.71 | 0.71 | 93 | 1011.9 |
| 20260506144131 | 54 | 5 | 2.0 | 3.0 | 0.00 | 0.71 | 0.71 | 94 | 1011.7 |
| 20260506143629 | 54 | 46 | 2.0 | 4.0 | 0.00 | 0.71 | 0.71 | 94 | 1011.8 |
| 20260506143127 | 54 | 34 | 2.0 | 4.0 | 0.00 | 0.71 | 0.71 | 94 | 1011.6 |
| 20260506142625 | 54 | 9 | 1.0 | 2.0 | 0.00 | 0.71 | 0.71 | 94 | 1011.6 |
| 20260506142123 | 54 | 24 | 1.0 | 2.0 | 0.00 | 0.71 | 0.71 | 95 | 1011.5 |
| 20260506141620 | 54 | 53 | 3.0 | 4.0 | 0.00 | 0.71 | 0.71 | 94 | 1011.2 |
| 20260506141119 | 54 | 32 | 2.0 | 4.0 | 0.00 | 0.71 | 0.71 | 95 | 1010.8 |
| 20260506140616 | 54 | 343 | 2.0 | 2.0 | 0.00 | 0.71 | 0.71 | 95 | 1010.6 |
| 20260506140113 | 54 | 336 | 0.0 | 2.0 | 0.00 | 0.71 | 0.71 | 95 | 1010.8 |
| 20260506135610 | 54 | 18 | 0.0 | 4.0 | 0.00 | 0.71 | 0.71 | 95 | 1010.7 |
| 20260506135106 | 54 | 62 | 0.0 | 2.0 | 0.00 | 0.71 | 0.71 | 95 | 1010.5 |
| 20260506134602 | 54 | 44 | 2.0 | 3.0 | 0.00 | 0.71 | 0.71 | 95 | 1010.2 |
| 20260506134058 | 54 | 348 | 1.0 | 2.0 | 0.00 | 0.71 | 0.71 | 96 | 1010.2 |
| 20260506133555 | 53 | 30 | 2.0 | 3.0 | 0.00 | 0.71 | 0.71 | 95 | 1010.0 |
| 20260506133053 | 54 | 355 | 3.0 | 3.0 | 0.02 | 0.71 | 0.71 | 95 | 1010.1 |
| 20260506132550 | 54 | 355 | 3.0 | 3.0 | 0.02 | 0.71 | 0.71 | 95 | 1010.1 |
| 20260506132047 | 53 | 41 | 1.0 | 2.0 | 0.00 | 0.71 | 0.71 | 95 | 1009.9 |
| 20260506131544 | 53 | 23 | 1.0 | 3.0 | 0.02 | 0.71 | 0.71 | 95 | 1009.3 |
| 20260506131040 | 53 | 50 | 2.0 | 3.0 | 0.05 | 0.70 | 0.70 | 95 | 1009.7 |
| 20260506130537 | 53 | 34 | 0.0 | 3.0 | 0.07 | 0.70 | 0.70 | 95 | 1010.6 |
| 20260506130035 | 53 | 48 | 1.0 | 3.0 | 0.09 | 0.70 | 0.70 | 95 | 1010.5 |
| 20260506125533 | 54 | 91 | 1.0 | 2.0 | 0.05 | 0.69 | 0.69 | 95 | 1011.0 |
| 20260506125031 | 54 | 47 | 2.0 | 2.0 | 0.05 | 0.68 | 0.68 | 95 | 1011.1 |
| 20260506124528 | 54 | 85 | 1.0 | 2.0 | 0.02 | 0.68 | 0.68 | 95 | 1011.1 |
| 20260506124026 | 54 | 313 | 1.0 | 2.0 | 0.02 | 0.67 | 0.67 | 95 | 1011.0 |
| 20260506123523 | 54 | 265 | 1.0 | 3.0 | 0.02 | 0.67 | 0.67 | 95 | 1011.0 |
| 20260506123021 | 54 | 341 | 0.0 | 2.0 | 0.00 | 0.67 | 0.67 | 95 | 1010.7 |
| 20260506122518 | 54 | 4 | 1.0 | 2.0 | 0.02 | 0.67 | 0.67 | 95 | 1010.5 |
| 20260506122016 | 54 | 29 | 1.0 | 4.0 | 0.02 | 0.67 | 0.67 | 95 | 1010.3 |
| 20260506121513 | 54 | 41 | 2.0 | 3.0 | 0.00 | 0.67 | 0.67 | 95 | 1010.3 |
| 20260506121009 | 54 | 76 | 0.0 | 3.0 | 0.00 | 0.67 | 0.67 | 95 | 1010.3 |
| 20260506120508 | 54 | 28 | 0.0 | 4.0 | 0.02 | 0.67 | 0.67 | 95 | 1010.2 |
| 20260506120005 | 54 | 55 | 3.0 | 4.0 | 0.02 | 0.67 | 0.67 | 95 | 1009.8 |
| 20260506115502 | 54 | 22 | 2.0 | 3.0 | 0.00 | 0.66 | 0.66 | 95 | 1009.7 |
| 20260506115001 | 54 | 289 | 1.0 | 3.0 | 0.00 | 0.66 | 0.66 | 96 | 1009.9 |
| 20260506114457 | 54 | 277 | 2.0 | 3.0 | 0.00 | 0.66 | 0.66 | 96 | 1009.7 |
| 20260506113956 | 54 | 305 | 3.0 | 4.0 | 0.00 | 0.66 | 0.66 | 96 | 1009.4 |
| 20260506113453 | 54 | 272 | 2.0 | 4.0 | 0.00 | 0.66 | 0.66 | 96 | 1009.4 |
| 20260506112950 | 54 | 91 | 4.0 | 4.0 | 0.00 | 0.66 | 0.66 | 96 | 1009.3 |
| 20260506112447 | 54 | 286 | 2.0 | 4.0 | 0.00 | 0.66 | 0.66 | 96 | 1009.7 |
| 20260506111944 | 54 | 287 | 2.0 | 2.0 | 0.00 | 0.66 | 0.66 | 96 | 1009.0 |
| 20260506111443 | 54 | 65 | 0.0 | 2.0 | 0.00 | 0.66 | 0.66 | 96 | 1008.0 |
| 20260506110939 | 54 | 30 | 1.0 | 3.0 | 0.00 | 0.66 | 0.66 | 95 | 1008.0 |
| 20260506110437 | 54 | 87 | 2.0 | 4.0 | 0.09 | 0.66 | 0.66 | 95 | 1007.9 |
| 20260506105933 | 54 | 304 | 0.0 | 3.0 | 0.12 | 0.66 | 0.66 | 95 | 1008.5 |
| 20260506105430 | 54 | 9 | 2.0 | 2.0 | 0.09 | 0.65 | 0.65 | 95 | 1008.5 |
| 20260506104927 | 54 | 57 | 2.0 | 2.0 | 0.33 | 0.64 | 0.64 | 95 | 1008.2 |
| 20260506104425 | 54 | 25 | 0.0 | 3.0 | 0.35 | 0.63 | 0.63 | 95 | 1008.4 |
| 20260506103923 | 54 | 65 | 0.0 | 4.0 | 0.19 | 0.59 | 0.59 | 94 | 1008.7 |
| 20260506103420 | 55 | 49 | 0.0 | 2.0 | 0.17 | 0.57 | 0.57 | 94 | 1008.9 |
| 20260506102917 | 55 | 10 | 1.0 | 2.0 | 0.14 | 0.56 | 0.56 | 94 | 1008.5 |
| 20260506102415 | 55 | 80 | 1.0 | 2.0 | 0.05 | 0.54 | 0.54 | 94 | 1008.8 |